Hors Challenge

Le Trail De La Vallée De La Thyria - Somzée (24.00 km)

dimanche 09 janvier 2022

Vous pouvez trouver Le classement original sur : www.goaltiming.be
 
LE TRAIL DE LA VALLÉE DE LA THYRIA - SOMZÉE
DISTANCE : 24.00 km
dimanche 09 janvier 2022
 
Place dos NOM Catégorie Pl/cat temps temps/km Vitesse
01:00:00              
1 6209 LALLEMAND GEOFFREY V1 1 01:47:52 04:30 13.35
2 6538 PASQUE FABRICE V1 2 01:50:04 04:35 13.08
3 6522 BOURTEMBOURG FREDERIC SH 1 01:51:42 04:39 12.89
4 6204 BURTOMBOY GREGORY V1 3 01:54:16 04:46 12.60
5 6516 VAN HOOIJDONK MATHIEU SH 2 01:55:14 04:48 12.50
6 6567 HUBEAUX DENIS V1 4 01:55:30 04:49 12.47
7 6189 CORNET REGIS V1 5 01:56:44 04:52 12.34
8 6592 MOUROT YOANN SH 3 01:57:20 04:53 12.27
9 6584 CHEVALIER FABIAN V1 6 01:57:43 04:54 12.23
10 6563 MUYLE LOUIS SH 4 01:57:44 04:54 12.23
11 6669 ROEKAERTS CHRISTOPHER SH 5 01:57:47 04:54 12.23
12 6535 HARDY ERIC V3 1 01:58:22 04:56 12.17
13 6556 PIRMEZ NICOLAS SH 6 01:58:39 04:57 12.14
14 6593 MAZINGUE ADRIEN SH 7 01:59:39 04:59 12.04
15 6553 MARQUET BENOIT V1 7 02:00:05 05:00 11.99
16 6568 ADRIEN TASIAUX XXX   02:00:22 05:01 11.96
17 6347 KESTENS LORY SH 8 02:00:52 05:02 11.91
18 6621 BRUNO RINO V1 8 02:00:59 05:02 11.90
19 6550 FAVRESSE PHILIPPE V2 1 02:01:41 05:04 11.83
20 6628 LOSSEAU GUILLAUME SH 9 02:02:00 05:05 11.80
21 6518 VANDENDRIESSCHE V1 9 02:02:45 05:07 11.73
22 6676 LHEUREUX FRANCOIS V1 10 02:03:05 05:08 11.70
23 6637 VERBESSELT KEVIN V1 11 02:03:18 05:08 11.68
24 6542 LEURQUIN STANY SH 10 02:03:26 05:09 11.67
25 6532 FRANGELLA FABRIZIO V1 12 02:03:31 05:09 11.66
26 6515 KADDOUR KARIM V2 2 02:04:58 05:12 11.52
27 6638 BRANCART LAURENT V1 13 02:05:48 05:14 11.45
28 6607 BRENARD THOMAS SH 11 02:06:42 05:17 11.37
29 6586 CORDELIER STEPHANE V1 14 02:06:50 05:17 11.35
30 6581 RIGUELLE FRANCOIS V1 15 02:06:55 05:17 11.35
31 6572 CARLIER THOMAS SH 12 02:07:07 05:18 11.33
32 6193 AMANT NICOLAS V1 16 02:08:28 05:21 11.21
33 6603 GRIGIS LOIC V1 17 02:08:32 05:21 11.20
34 6582 MARCHAND PIERRE V1 18 02:08:42 05:22 11.19
35 6580 GEUSE JULIEN V1 19 02:08:42 05:22 11.19
36 6670 CORBIAUX PIERRE SH 13 02:08:50 05:22 11.18
37 6612 ZARULLI CHRIS V1 20 02:08:56 05:22 11.17
38 6355 POSKIN JULIEN V1 21 02:09:26 05:24 11.13
39 6611 CHEVALIER OLIVIER SH 14 02:10:02 05:25 11.07
40 6597 FOSSION JONAS SH 15 02:10:19 05:26 11.05
41 6215 FRANCE SEBASTIEN SH 16 02:10:27 05:26 11.04
42 6529 ZANIER LAURENT V1 22 02:10:41 05:27 11.02
43 6546 MICHAUX DIDIER V2 3 02:11:36 05:29 10.94
44 6583 DOMINGUES DANIEL V1 23 02:12:02 05:30 10.91
45 6660 FOGUENNE JOSE V2 4 02:12:08 05:30 10.90
46 6357 JOLY LOIC SH 17 02:12:33 05:31 10.86
47 6196 MARECHAL DOMINIQUE V2 5 02:13:15 05:33 10.81
48 6653 BEVILACQUA RAPHAEL V1 24 02:13:57 05:35 10.75
49 6619 TRIGAUX MARTIN SH 18 02:14:19 05:36 10.72
50 6358 JOLY CYRIL SH 19 02:14:48 05:37 10.68
51 6530 BACHELY GEOFFREY V1 25 02:14:51 05:37 10.68
52 6512 MARKIEWICZ ANNE-SOPHIE SD 1 02:15:50 05:40 10.60
53 6554 PLICHARD CHRISTOPHE V1 26 02:15:50 05:40 10.60
54 6557 BEAUSSART LAURA SD 2 02:16:13 05:41 10.57
55 6651 LACROIX LOGAN SH 20 02:16:32 05:41 10.55
56 6528 MAQUET JORDAN SH 21 02:17:07 05:43 10.50
57 6536 LENOIR ANDY V1 27 02:17:27 05:44 10.48
58 6579 DAGNEAUX CHRISTOPHE V1 28 02:17:40 05:44 10.46
59 6517 DIEUDONNE MICHEL V2 6 02:17:50 05:45 10.45
60 6677 BASSELIER NICOLAS SH 22 02:18:08 05:45 10.42
61 6559 GAUSSET OLIVIER V2 7 02:18:32 05:46 10.39
62 6201 DE BELDER BERTRAND SH 23 02:19:50 05:50 10.30
63 6643 THURION EVAN SH 24 02:20:07 05:50 10.28
64 6601 LASSELIN ERWAN SH 25 02:20:41 05:52 10.24
65 6216 VERCRUYSSE GUILLAUME SH 26 02:20:42 05:52 10.23
66 6184 LECLERCQ GAETAN V1 29 02:21:13 05:53 10.20
67 6615 DESCHEPPER BENJAMIN SH 27 02:21:40 05:54 10.16
68 6362 LECLEF JULIEN V1 30 02:21:40 05:54 10.16
69 6199 VERBRUGGEN YVES SH 28 02:22:19 05:56 10.12
70 6356 DUJEUX JEROME SH 29 02:22:19 05:56 10.12
71 6588 WEYKMANS SEBASTIEN V1 31 02:22:40 05:57 10.09
72 6185 BLANCHET GUILLAUME V1 32 02:22:53 05:57 10.08
73 6195 PIRENNE MARC V2 8 02:23:43 05:59 10.02
74 6372 HOUSSONLOGE SH 30 02:24:12 06:00 9.99
75 6648 MATTEZ MELANIE SD 3 02:24:43 06:02 9.95
76 6617 GYSEN MAXIM V1 33 02:24:43 06:02 9.95
77 6595 GENESTAR GREGORY -1 1 02:25:09 06:03 9.92
78 6585 CRETELEINE ROLAND V3 2 02:26:15 06:06 9.85
79 6658 BRUYR BENOIT V1 34 02:26:25 06:06 9.84
80 6640 BUYL ELS SD 4 02:26:32 06:06 9.83
81 6541 BOUCHAT CAROLINE SD 5 02:27:16 06:08 9.78
82 6665 SOREL RENAUD SH 31 02:27:33 06:09 9.76
83 6348 BEDORET GEOFFREY SH 32 02:27:38 06:09 9.75
84 6654 FROONINCKX AUDREY SD 6 02:27:52 06:10 9.74
85 6202 AMANT BERTRAND SH 33 02:28:07 06:10 9.72
86 6629 BUCHET SEBASTIEN V1 35 02:28:18 06:11 9.71
87 6576 GHEURY PHILIPPE V2 9 02:28:24 06:11 9.70
88 6608 VANEGHEM BERTRAND V2 10 02:28:26 06:11 9.70
89 6353 COPPEE BRUNO V1 36 02:28:32 06:11 9.69
90 6198 HANOULLE REMY SH 34 02:28:51 06:12 9.67
91 6359 KRAUCH BRUNO V1 37 02:28:55 06:12 9.67
92 6659 VAN OOSTEN DIMITRI SH 35 02:29:56 06:15 9.60
93 6652 CHRISTOPHE NICOLAS V1 38 02:30:00 06:15 9.60
94 6606 RAMPELBERGS VINCENT V1 39 02:31:07 06:18 9.53
95 6613 VANBELLINGEN HANS V1 40 02:31:15 06:18 9.52
96 6623 CUISENAIRE KATHLEEN A1 1 02:31:21 06:18 9.51
97 6203 HOLLEVOET CATHERINE A1 2 02:31:44 06:19 9.49
98 6672 DUPRET THOMAS ESH 1 02:32:01 06:20 9.47
99 6674 DUPRET ANTOINE ESH 2 02:32:01 06:20 9.47
100 6675 GILLES MATHIEU SH 36 02:32:01 06:20 9.47
101 6589 DEWAULLE CHRISTOPHE V1 41 02:32:02 06:20 9.47
102 6192 GHESQUIERE PATRICK V2 11 02:32:33 06:21 9.44
103 6548 DEWIT RAYMOND V2 12 02:34:12 06:25 9.34
104 6667 VANBLAERE FREDERIC V2 13 02:34:19 06:26 9.33
105 6524 FOBE DIDIER V2 14 02:34:21 06:26 9.33
106 6661 JANSSENS PAUL V3 3 02:34:23 06:26 9.33
107 6631 THIERRY POSKIN V3 4 02:34:30 06:26 9.32
108 6620 WATTIN MICKAEL V1 42 02:34:34 06:26 9.32
109 6657 BAUDEAU JULIEN V1 43 02:34:46 06:27 9.30
110 6627 KIN LAURENCE A2 1 02:35:27 06:29 9.26
111 6596 MATHIEU JACK V2 15 02:35:36 06:29 9.25
112 6649 COUPAIN PHILIPPE V1 44 02:35:44 06:29 9.25
113 6666 LEHANNE ERIC V1 45 02:35:52 06:30 9.24
114 6647 MICHAUX KEVIN SH 37 02:35:59 06:30 9.23
115 6645 SCORY GUILLAUME SH 38 02:36:27 06:31 9.20
116 6664 CHARLIER JEROME SH 39 02:36:30 06:31 9.20
117 6363 CLAMOT BRIEUC SH 40 02:36:52 06:32 9.18
118 6200 FALLON JONATHAN V1 46 02:37:05 06:33 9.17
119 6533 BIERWISCH JEAN-MICHEL V2 16 02:37:32 06:34 9.14
120 6594 RICHARD KELLY -1 2 02:37:43 06:34 9.13
121 6354 WALRAVE DENIS V1 47 02:37:43 06:34 9.13
122 6513 DOOMS ANDRE V2 17 02:37:46 06:34 9.13
123 6571 ROUSSEAU DAVID V1 48 02:37:47 06:34 9.13
124 6551 GILLAIN ALAIN V2 18 02:37:48 06:34 9.13
125 6618 POCHET DIMITRI SH 41 02:38:36 06:36 9.08
126 6531 SCAILTEUR CHARLINE SD 7 02:38:53 06:37 9.06
127 6370 ZANTI GIUSEPPE SH 42 02:39:51 06:40 9.01
128 6600 LANGE LUDWIG SH 43 02:40:32 06:41 8.97
129 6616 KIVITS GENEVIEVE A2 2 02:41:01 06:43 8.94
130 6622 BRAMS HUGUES V2 19 02:41:21 06:43 8.92
131 6632 LAMORT FREDERIC V1 49 02:42:11 06:45 8.88
132 6527 GOSSERIES LIONEL V1 50 02:42:23 06:46 8.87
133 6549 LEROY LUC V2 20 02:42:36 06:46 8.86
134 6552 VANHEES CHRISTOPHER SH 44 02:42:40 06:47 8.85
135 6609 GARCIA JOAQUIN V2 21 02:42:59 06:47 8.84
136 6540 WILLOCQ PHILIPPE V2 22 02:43:35 06:49 8.80
137 6186 HIFFE STEPHANE V2 23 02:43:36 06:49 8.80
138 6188 GILLAIN MICHEL V2 24 02:43:55 06:50 8.79
139 6598 LEROY STEPHANIE A1 3 02:44:06 06:50 8.78
140 6624 BOUVIER BENOIT V1 51 02:44:13 06:51 8.77
141 6211 DANDOIS FLORENCE A1 4 02:44:33 06:51 8.75
142 6349 YU XUEYUN A1 5 02:45:16 06:53 8.71
143 6521 MICHAUX GWENAELLE SD 8 02:45:24 06:53 8.71
144 6626 AMMARI MOULOUD V1 52 02:46:18 06:56 8.66
145 6197 VERBRUGGEN AURELIE SD 9 02:46:36 06:56 8.64
146 6213 ROUSSEAU FRANCIS V2 25 02:46:46 06:57 8.63
147 6605 BIEBUYCK THOMAS SH 45 02:47:31 06:59 8.60
148 6591 DI CATALDO MICHEL V3 5 02:47:56 07:00 8.57
149 6210 MOROSO JEAN-FRANCOIS V1 53 02:48:22 07:01 8.55
150 6525 SCAILTEUR VERONIQUE A1 6 02:49:27 07:04 8.50
151 6656 HUBERT ANNABEL A2 3 02:50:35 07:06 8.44
152 6514 ZIOLKOWSKI MARC SH 46 02:51:06 07:08 8.42
153 6574 LECIRE CHRISTOPHE V1 54 02:51:42 07:09 8.39
154 6561 VANDERMOTTEN LAURENT V1 55 02:51:44 07:09 8.39
155 6526 ETIENNE JEAN-FRANCOIS V2 26 02:52:34 07:11 8.34
156 6361 DESMET FREDERIC V1 56 02:52:46 07:12 8.34
157 6635 BEGUIN DIMITRI V1 57 02:53:33 07:14 8.30
158 6671 MASURE ALEXANDRE V2 27 02:53:38 07:14 8.29
159 6673 DE KUYSSCHER LYDIA A1 7 02:53:39 07:14 8.29
160 6555 VAN VELTHEM RAPHAEL SH 47 02:53:41 07:14 8.29
161 6371 HEUSGHEM FRANK V1 58 02:54:00 07:15 8.28
162 6221 MELICE NOE SH 48 02:54:53 07:17 8.23
163 6219 GENARD PAULINE SD 10 02:54:53 07:17 8.23
164 6560 VAN GENECHTEN SERGE V3 6 02:57:11 07:23 8.13
165 6194 POUILLAUDE ERIC V1 59 02:57:43 07:24 8.10
166 6214 GHESQUIERE NATACHA SD 11 02:58:27 07:26 8.07
167 6367 TRAINA CHRISTOPHE V2 28 02:58:58 07:27 8.05
168 6368 TRAINA LUDO ESH 3 02:58:59 07:27 8.05
169 6543 LEGROS MYLENE A2 4 03:00:52 07:32 7.96
170 6544 DESART YVES V2 29 03:00:52 07:32 7.96
171 6639 DELVIGNE MARC V2 30 03:00:56 07:32 7.96
172 6636 CORTELLETTI ENZO SH 49 03:00:56 07:32 7.96
173 6373 SKANDER LAIOUNI V2 31 03:01:37 07:34 7.93
174 6655 DERRE SIGRID A1 8 03:03:19 07:38 7.86
175 6625 LUYTEN FABIENNE A2 5 03:03:39 07:39 7.84
176 6641 DEGROOTE NICOLAAS V1 60 03:05:47 07:44 7.75
177 6190 LANCKRIET ALEX V2 32 03:06:01 07:45 7.74
178 6537 ESPREUX SEBASTIEN V1 61 03:08:37 07:52 7.63
179 6569 HAVRENNE JONATHAN V1 62 03:09:35 07:54 7.60
180 6570 MACHIELSEN BIEKE SD 12 03:09:35 07:54 7.60
181 6575 RONDOU PHILIPPE V2 33 03:09:38 07:54 7.59
182 6577 GROSSO PASCAL V1 63 03:11:14 07:58 7.53
183 6578 GUERIN GONTRAN V2 34 03:11:16 07:58 7.53
184 6217 JOSSE PHILIPPE V2 35 03:12:29 08:01 7.48
185 6573 HOURMAN GWENDOLINE A2 6 03:12:50 08:02 7.47
186 6350 LETE PASCAL V3 7 03:15:07 08:08 7.38
187 6633 DURY CHRISTOPHE V1 64 03:16:45 08:12 7.32
188 6634 MASSART DAMIEN V1 65 03:16:46 08:12 7.32
189 6351 BACHY VERONIQUE A2 7 03:17:10 08:13 7.30
190 6206 LECUYER FRED V2 36 03:17:24 08:13 7.29
191 6208 LEFOUR FLORENCE A2 8 03:17:24 08:13 7.29
192 6599 MAZZAGUFO SAMUEL V1 66 03:17:44 08:14 7.28
193 6610 DELBOUILLE THIERRY V2 37 03:17:59 08:15 7.27
194 6646 HENNEQUIN EMMANUEL V2 38 03:18:58 08:17 7.24
195 6604 COLLE LUDOVIC V1 67 03:18:58 08:17 7.24
196 6614 ANDRE PAUL V1 68 03:18:58 08:17 7.24
197 6564 MAERTEN EMILIE SD 13 03:19:16 08:18 7.23
198 6663 MAES ALAIN V3 8 03:22:09 08:25 7.12
199 6662 DE CREMER KRIS V2 39 03:22:09 08:25 7.12
200 6642 MARMIGNON ARY SH 50 03:24:29 08:31 7.04
201 6668 KUYSTERMANS TIJL V1 69 03:29:17 08:43 6.88
202 6587 LALIEUX MAXIME V1 70 03:38:27 09:06 6.59
203 6590 DE SWERT GEOFFROY SH 51 03:38:27 09:06 6.59
204 6222 BELGEONNE DANIEL V3 9 03:39:30 09:09 6.56
205 6566 FONTIGNIES PASCAL V1 71 03:47:39 09:29 6.33
206 6565 BUTTICE ALFINO V1 72 03:47:40 09:29 6.33
               
Nos dernières videos